Time,TemperatureF,DewpointF,PressureIn,WindDirection,WindDirectionDegrees,WindSpeedMPH,WindSpeedGustMPH,Humidity,HourlyPrecipIn,Conditions,Clouds,dailyrainin,SolarRadiationWatts/m^2,SoftwareType,DateUTC
2013-04-06 00:01:00,50.4,47.0,30.17,WSW,238,0.0,1.2,88,0.00,RA,,0.00,0.0,WeatherDisplay:10.37,2013-04-06 07:01:00,
2013-04-06 00:06:00,50.4,47.0,30.18,WSW,238,0.0,0.0,88,0.00,RA,,0.00,0.0,WeatherDisplay:10.37,2013-04-06 07:06:00,
2013-04-06 00:11:00,50.4,47.0,30.17,WSW,239,0.8,1.2,88,0.00,CLR,,0.00,0.0,WeatherDisplay:10.37,2013-04-06 07:11:00,
2013-04-06 00:16:00,50.4,47.0,30.17,SW,222,2.9,4.0,88,0.00,CLR,,0.00,0.0,WeatherDisplay:10.37,2013-04-06 07:16:00,
2013-04-06 00:22:00,50.4,47.3,30.18,SW,235,4.7,7.0,89,0.00,RA,,0.01,0.0,WeatherDisplay:10.37,2013-04-06 07:22:00,
2013-04-06 00:27:00,50.4,47.3,30.18,SSW,212,2.9,3.5,89,0.00,RA,,0.01,0.0,WeatherDisplay:10.37,2013-04-06 07:27:00,
2013-04-06 00:32:00,50.5,47.4,30.18,SSW,212,1.8,3.5,89,0.00,CLR,,0.01,0.0,WeatherDisplay:10.37,2013-04-06 07:32:00,
2013-04-06 00:37:00,50.5,47.4,30.17,South,170,4.3,5.0,89,0.00,CLR,,0.01,0.0,WeatherDisplay:10.37,2013-04-06 07:37:00,
2013-04-06 00:42:00,50.5,47.4,30.17,SSE,156,4.7,6.9,89,0.00,CLR,,0.01,0.0,WeatherDisplay:10.37,2013-04-06 07:42:00,
2013-04-06 00:47:00,50.5,47.1,30.17,SE,144,4.4,5.8,88,0.00,CLR,,0.01,0.0,WeatherDisplay:10.37,2013-04-06 07:47:00,
2013-04-06 00:52:00,50.5,46.8,30.17,SSE,148,3.2,4.0,87,0.00,CLR,,0.01,0.0,WeatherDisplay:10.37,2013-04-06 07:52:00,
2013-04-06 00:57:00,50.6,46.9,30.17,SSE,152,4.3,5.8,87,0.00,CLR,,0.01,0.0,WeatherDisplay:10.37,2013-04-06 07:57:00,
2013-04-06 01:02:00,50.6,46.9,30.17,SSE,166,3.9,4.6,87,0.01,BKN,,0.01,0.0,WeatherDisplay:10.37,2013-04-06 08:02:00,
2013-04-06 01:07:00,50.6,46.6,30.17,SE,124,3.4,4.0,86,0.01,BKN,,0.01,0.0,WeatherDisplay:10.37,2013-04-06 08:07:00,
2013-04-06 01:13:00,50.7,46.7,30.17,SE,124,2.4,3.5,86,0.01,BKN,,0.01,0.0,WeatherDisplay:10.37,2013-04-06 08:13:00,
2013-04-06 01:18:00,50.9,46.6,30.17,ESE,123,3.1,3.5,85,0.01,BKN,,0.01,0.0,WeatherDisplay:10.37,2013-04-06 08:18:00,
2013-04-06 01:23:00,51.0,46.6,30.17,ESE,112,1.7,3.5,85,0.00,BKN,,0.01,0.0,WeatherDisplay:10.37,2013-04-06 08:23:00,
2013-04-06 01:28:00,51.1,46.7,30.17,East,97,2.7,4.0,85,0.00,BKN,,0.01,0.0,WeatherDisplay:10.37,2013-04-06 08:28:00,
2013-04-06 01:33:00,51.1,46.7,30.17,ESE,119,3.0,3.5,85,0.00,BKN,,0.01,0.0,WeatherDisplay:10.37,2013-04-06 08:33:00,
2013-04-06 01:38:00,51.2,46.8,30.17,ESE,120,0.3,1.2,85,0.00,BKN,,0.01,0.0,WeatherDisplay:10.37,2013-04-06 08:38:00,
2013-04-06 01:43:00,51.2,46.8,30.17,SSW,209,0.8,2.3,85,0.00,BKN,,0.01,0.0,WeatherDisplay:10.37,2013-04-06 08:43:00,
2013-04-06 01:48:00,51.2,46.8,30.17,WSW,249,4.6,6.0,85,0.00,BKN,,0.01,0.0,WeatherDisplay:10.37,2013-04-06 08:48:00,
2013-04-06 01:53:00,51.1,47.1,30.17,WSW,241,6.9,8.1,86,0.00,BKN,,0.01,0.0,WeatherDisplay:10.37,2013-04-06 08:53:00,
2013-04-06 01:58:00,51.1,47.4,30.17,WSW,245,8.8,11.5,87,0.00,BKN,,0.01,0.0,WeatherDisplay:10.37,2013-04-06 08:58:00,
2013-04-06 02:03:00,51.1,47.4,30.18,WSW,249,9.5,13.0,87,0.00,BKN,,0.01,0.0,WeatherDisplay:10.37,2013-04-06 09:03:00,
2013-04-06 02:08:00,51.1,47.4,30.18,SW,234,9.4,12.7,87,0.00,BKN,,0.01,0.0,WeatherDisplay:10.37,2013-04-06 09:08:00,
2013-04-06 02:13:00,51.1,47.4,30.17,SW,235,7.7,9.2,87,0.00,BKN,,0.01,0.0,WeatherDisplay:10.37,2013-04-06 09:13:00,
2013-04-06 02:18:00,51.0,47.3,30.17,SW,231,7.9,9.2,87,0.00,BKN,,0.01,0.0,WeatherDisplay:10.37,2013-04-06 09:18:00,
2013-04-06 02:23:00,51.0,47.6,30.17,SW,232,3.6,4.6,88,0.00,BKN,,0.01,0.0,WeatherDisplay:10.37,2013-04-06 09:23:00,
2013-04-06 02:28:00,51.0,47.6,30.17,SSW,213,4.5,5.8,88,0.00,BKN,,0.01,0.0,WeatherDisplay:10.37,2013-04-06 09:28:00,
2013-04-06 02:33:00,50.8,47.4,30.17,SW,218,2.6,5.0,88,0.00,BKN,,0.01,0.0,WeatherDisplay:10.37,2013-04-06 09:33:00,
2013-04-06 02:38:00,50.8,47.4,30.17,SSW,208,2.4,3.5,88,0.00,BKN,,0.01,0.0,WeatherDisplay:10.37,2013-04-06 09:38:00,
2013-04-06 02:43:00,50.7,47.3,30.16,SSW,208,0.6,2.3,88,0.00,BKN,,0.01,0.0,WeatherDisplay:10.37,2013-04-06 09:43:00,
2013-04-06 02:48:00,50.6,47.2,30.17,SSW,211,3.9,4.6,88,0.00,BKN,,0.01,0.0,WeatherDisplay:10.37,2013-04-06 09:48:00,
2013-04-06 02:53:00,50.6,47.5,30.17,SW,233,6.5,8.1,89,0.00,BKN,,0.01,0.0,WeatherDisplay:10.37,2013-04-06 09:53:00,
2013-04-06 02:58:00,50.7,47.9,30.17,SW,223,4.2,5.0,90,0.00,BKN,,0.01,0.0,WeatherDisplay:10.37,2013-04-06 09:58:00,
2013-04-06 03:03:00,50.8,48.0,30.17,SSW,212,3.6,4.0,90,0.00,BKN,,0.01,0.0,WeatherDisplay:10.37,2013-04-06 10:03:00,
2013-04-06 03:08:00,50.9,48.1,30.17,SW,225,3.9,5.0,90,0.00,BKN,,0.01,0.0,WeatherDisplay:10.37,2013-04-06 10:08:00,
2013-04-06 03:13:00,50.9,48.1,30.17,WSW,237,3.1,3.5,90,0.00,BKN,,0.01,0.0,WeatherDisplay:10.37,2013-04-06 10:13:00,
2013-04-06 03:18:00,51.1,48.0,30.16,SSW,192,2.1,3.5,89,0.00,BKN,,0.01,0.0,WeatherDisplay:10.37,2013-04-06 10:18:00,
2013-04-06 03:23:00,51.2,48.1,30.16,SSW,203,3.4,4.6,89,0.00,BKN,,0.01,0.0,WeatherDisplay:10.37,2013-04-06 10:23:00,
2013-04-06 03:28:00,51.2,48.1,30.16,SSW,212,1.8,3.5,89,0.00,BKN,,0.01,0.0,WeatherDisplay:10.37,2013-04-06 10:28:00,
2013-04-06 03:33:00,51.2,48.1,30.16,SSW,204,1.2,3.5,89,0.00,BKN,,0.01,0.0,WeatherDisplay:10.37,2013-04-06 10:33:00,
2013-04-06 03:38:00,51.3,48.5,30.16,SW,224,3.0,4.0,90,0.00,BKN,,0.01,0.0,WeatherDisplay:10.37,2013-04-06 10:38:00,
2013-04-06 03:43:00,51.3,48.5,30.16,SW,231,3.7,4.6,90,0.00,BKN,,0.01,0.0,WeatherDisplay:10.37,2013-04-06 10:43:00,
2013-04-06 03:48:00,51.3,48.5,30.15,SSW,195,3.0,4.6,90,0.00,BKN,,0.01,0.0,WeatherDisplay:10.37,2013-04-06 10:48:00,
2013-04-06 03:53:00,51.3,48.5,30.15,SW,230,3.9,4.6,90,0.00,BKN,,0.01,0.0,WeatherDisplay:10.37,2013-04-06 10:53:00,
2013-04-06 03:58:00,51.2,48.4,30.16,ESE,120,0.9,2.3,90,0.00,BKN,,0.01,0.0,WeatherDisplay:10.37,2013-04-06 10:58:00,
2013-04-06 04:03:00,51.2,48.4,30.15,SW,232,2.4,3.5,90,0.00,BKN,,0.01,0.0,WeatherDisplay:10.37,2013-04-06 11:03:00,
2013-04-06 04:08:00,51.1,48.3,30.15,SW,231,3.1,4.6,90,0.00,BKN,,0.01,0.0,WeatherDisplay:10.37,2013-04-06 11:08:00,
2013-04-06 04:13:00,51.0,48.2,30.15,WSW,237,4.1,5.8,90,0.00,BKN,,0.01,0.0,WeatherDisplay:10.37,2013-04-06 11:13:00,
2013-04-06 04:18:00,51.0,48.2,30.15,SW,234,7.4,8.1,90,0.00,BKN,,0.01,0.0,WeatherDisplay:10.37,2013-04-06 11:18:00,
2013-04-06 04:23:00,51.0,48.2,30.15,SW,226,6.4,6.9,90,0.00,BKN,,0.01,0.0,WeatherDisplay:10.37,2013-04-06 11:23:00,
2013-04-06 04:28:00,51.0,48.2,30.15,SSW,203,3.7,4.6,90,0.00,BKN,,0.01,0.0,WeatherDisplay:10.37,2013-04-06 11:28:00,
2013-04-06 04:33:00,51.0,48.2,30.15,SSW,196,3.5,3.5,90,0.00,FEW,,0.01,0.0,WeatherDisplay:10.37,2013-04-06 11:33:00,
2013-04-06 04:38:00,50.8,48.0,30.15,SSW,193,2.7,3.5,90,0.00,FEW,,0.01,0.0,WeatherDisplay:10.37,2013-04-06 11:38:00,
2013-04-06 04:43:00,50.7,47.9,30.15,SSW,205,4.4,4.6,90,0.00,FEW,,0.01,0.0,WeatherDisplay:10.37,2013-04-06 11:43:00,
2013-04-06 04:48:00,50.6,47.8,30.15,SW,228,4.3,4.6,90,0.00,FEW,,0.01,0.0,WeatherDisplay:10.37,2013-04-06 11:48:00,
2013-04-06 04:53:00,50.5,48.0,30.15,WSW,237,4.6,5.0,91,0.00,FEW,,0.01,0.0,WeatherDisplay:10.37,2013-04-06 11:53:00,
2013-04-06 04:58:00,50.5,48.0,30.15,WSW,237,5.2,6.9,91,0.00,FEW,,0.01,0.0,WeatherDisplay:10.37,2013-04-06 11:58:00,
2013-04-06 05:03:00,50.6,47.8,30.16,WSW,241,4.2,6.0,90,0.00,CLR,,0.01,0.0,WeatherDisplay:10.37,2013-04-06 12:03:00,
2013-04-06 05:08:00,50.6,47.8,30.16,SW,226,3.3,4.0,90,0.00,CLR,,0.01,0.0,WeatherDisplay:10.37,2013-04-06 12:08:00,
2013-04-06 05:13:00,50.6,47.8,30.16,South,186,6.3,8.0,90,0.00,CLR,,0.01,0.0,WeatherDisplay:10.37,2013-04-06 12:13:00,
2013-04-06 05:18:00,50.6,47.8,30.16,SW,220,5.6,6.9,90,0.00,CLR,,0.01,0.0,WeatherDisplay:10.37,2013-04-06 12:18:00,
2013-04-06 05:23:00,50.6,47.8,30.16,WSW,238,7.7,10.4,90,0.00,CLR,,0.01,0.0,WeatherDisplay:10.37,2013-04-06 12:23:00,
2013-04-06 05:28:00,50.8,48.0,30.16,SW,216,6.8,8.1,90,0.00,CLR,,0.01,0.0,WeatherDisplay:10.37,2013-04-06 12:28:00,
2013-04-06 05:33:00,50.9,47.8,30.16,WSW,238,4.6,7.0,89,0.00,CLR,,0.01,0.0,WeatherDisplay:10.37,2013-04-06 12:33:00,
2013-04-06 05:38:00,51.0,47.9,30.16,WSW,240,7.5,8.1,89,0.00,CLR,,0.01,0.0,WeatherDisplay:10.37,2013-04-06 12:38:00,
2013-04-06 05:43:00,51.0,48.2,30.16,SW,228,4.9,8.1,90,0.00,CLR,,0.01,0.0,WeatherDisplay:10.37,2013-04-06 12:43:00,
2013-04-06 05:48:00,51.0,48.2,30.16,SW,232,2.9,4.6,90,0.00,CLR,,0.01,0.0,WeatherDisplay:10.37,2013-04-06 12:48:00,
2013-04-06 05:53:00,51.0,48.2,30.16,SW,225,4.1,4.6,90,0.00,CLR,,0.01,0.0,WeatherDisplay:10.37,2013-04-06 12:53:00,
2013-04-06 05:58:00,51.0,48.2,30.16,SW,226,3.3,4.0,90,0.00,CLR,,0.01,0.0,WeatherDisplay:10.37,2013-04-06 12:58:00,
2013-04-06 06:04:00,50.9,48.1,30.17,SW,228,6.5,8.1,90,0.00,BKN,,0.01,0.0,WeatherDisplay:10.37,2013-04-06 13:04:00,
2013-04-06 06:09:00,50.9,48.1,30.17,SW,228,6.6,8.1,90,0.00,BKN,,0.01,0.0,WeatherDisplay:10.37,2013-04-06 13:09:00,
2013-04-06 06:14:00,50.9,48.1,30.17,SW,216,6.2,8.0,90,0.00,BKN,,0.01,0.0,WeatherDisplay:10.37,2013-04-06 13:14:00,
2013-04-06 06:19:00,50.9,48.1,30.17,SSW,213,7.2,8.1,90,0.00,BKN,,0.01,0.0,WeatherDisplay:10.37,2013-04-06 13:19:00,
2013-04-06 06:24:00,51.0,48.2,30.16,SSW,205,7.0,8.1,90,0.00,BKN,,0.01,0.0,WeatherDisplay:10.37,2013-04-06 13:24:00,
2013-04-06 06:29:00,51.0,48.2,30.16,SSW,197,6.6,8.1,90,0.00,BKN,,0.01,0.0,WeatherDisplay:10.37,2013-04-06 13:29:00,
2013-04-06 06:35:00,50.9,48.1,30.16,SSW,195,5.9,7.0,90,0.00,BKN,,0.01,0.0,WeatherDisplay:10.37,2013-04-06 13:35:00,
2013-04-06 06:40:00,50.8,47.7,30.16,SSE,156,5.0,7.0,89,0.00,BKN,,0.01,0.0,WeatherDisplay:10.37,2013-04-06 13:40:00,
2013-04-06 06:45:00,50.7,47.6,30.17,SSE,166,6.5,8.1,89,0.00,BKN,,0.01,0.0,WeatherDisplay:10.37,2013-04-06 13:45:00,
2013-04-06 06:50:00,50.6,47.5,30.17,SSE,166,5.4,6.0,89,0.00,BKN,,0.01,0.0,WeatherDisplay:10.37,2013-04-06 13:50:00,
2013-04-06 06:55:00,50.4,47.6,30.17,South,173,4.6,5.0,90,0.00,BKN,,0.01,5.0,WeatherDisplay:10.37,2013-04-06 13:55:00,
2013-04-06 07:00:00,50.3,47.5,30.17,South,179,3.0,5.0,90,0.00,BKN,BKN,0.01,11.0,WeatherDisplay:10.37,2013-04-06 14:00:00,
2013-04-06 07:05:00,50.3,47.5,30.16,South,181,3.2,3.5,90,0.00,FEW,,0.01,18.0,WeatherDisplay:10.37,2013-04-06 14:05:00,
2013-04-06 07:10:00,50.3,47.5,30.17,South,178,2.0,3.5,90,0.00,FEW,,0.01,21.0,WeatherDisplay:10.37,2013-04-06 14:10:00,
2013-04-06 07:15:00,50.3,47.5,30.17,SSE,161,1.1,2.3,90,0.00,FEW,,0.01,25.0,WeatherDisplay:10.37,2013-04-06 14:15:00,
2013-04-06 07:20:00,50.4,47.3,30.17,SSE,161,1.3,2.3,89,0.00,FEW,,0.01,28.0,WeatherDisplay:10.37,2013-04-06 14:20:00,
2013-04-06 07:25:00,50.7,47.3,30.17,East,99,3.1,4.0,88,0.00,FEW,,0.01,30.0,WeatherDisplay:10.37,2013-04-06 14:25:00,
2013-04-06 07:30:00,51.0,47.6,30.17,ESE,110,2.3,3.5,88,0.00,FEW,,0.01,37.0,WeatherDisplay:10.37,2013-04-06 14:30:00,
2013-04-06 07:35:00,51.2,47.5,30.17,ESE,109,2.6,3.5,87,0.00,FEW,,0.01,46.0,WeatherDisplay:10.37,2013-04-06 14:35:00,
2013-04-06 07:40:00,51.3,47.6,30.17,ESE,107,2.0,3.5,87,0.00,FEW,,0.01,53.0,WeatherDisplay:10.37,2013-04-06 14:40:00,
2013-04-06 07:45:00,51.5,47.5,30.17,ESE,106,1.2,2.3,86,0.00,FEW,,0.01,62.0,WeatherDisplay:10.37,2013-04-06 14:45:00,
2013-04-06 07:50:00,51.7,47.6,30.17,ESE,106,2.0,2.3,86,0.00,FEW,,0.01,63.0,WeatherDisplay:10.37,2013-04-06 14:50:00,
2013-04-06 07:55:00,51.9,47.5,30.17,ESE,106,1.1,2.3,85,0.00,FEW,,0.01,58.0,WeatherDisplay:10.37,2013-04-06 14:55:00,
2013-04-06 08:00:00,52.1,47.7,30.18,ESE,107,0.0,0.0,85,0.00,FEW,,0.01,62.0,WeatherDisplay:10.37,2013-04-06 15:00:00,
2013-04-06 08:05:00,52.3,48.2,30.18,ESE,106,0.1,1.0,86,0.00,CLR,,0.01,77.0,WeatherDisplay:10.37,2013-04-06 15:05:00,
2013-04-06 08:10:00,52.5,48.1,30.18,ESE,106,0.6,1.2,85,0.00,CLR,,0.01,81.0,WeatherDisplay:10.37,2013-04-06 15:10:00,
2013-04-06 08:15:00,52.7,48.3,30.18,ESE,105,0.0,0.0,85,0.00,CLR,,0.01,54.0,WeatherDisplay:10.37,2013-04-06 15:15:00,
2013-04-06 08:20:00,52.9,49.1,30.18,ESE,106,0.7,2.3,87,0.00,CLR,,0.01,62.0,WeatherDisplay:10.37,2013-04-06 15:20:00,
2013-04-06 08:25:00,53.1,49.3,30.18,ESE,106,0.0,0.0,87,0.00,CLR,,0.01,77.0,WeatherDisplay:10.37,2013-04-06 15:25:00,
2013-04-06 08:30:00,53.3,49.5,30.18,ESE,106,0.0,0.0,87,0.00,CLR,,0.01,91.0,WeatherDisplay:10.37,2013-04-06 15:30:00,
2013-04-06 08:35:00,53.5,49.4,30.18,ESE,106,0.0,0.0,86,0.00,CLR,,0.01,118.0,WeatherDisplay:10.37,2013-04-06 15:35:00,
2013-04-06 08:40:00,53.7,49.6,30.18,ESE,106,0.0,0.0,86,0.00,CLR,,0.01,142.0,WeatherDisplay:10.37,2013-04-06 15:40:00,
2013-04-06 08:45:00,53.9,49.8,30.18,ESE,105,0.0,0.0,86,0.00,CLR,,0.01,165.0,WeatherDisplay:10.37,2013-04-06 15:45:00,
2013-04-06 08:50:00,54.3,50.2,30.18,ESE,106,0.0,0.0,86,0.00,CLR,,0.01,149.0,WeatherDisplay:10.37,2013-04-06 15:50:00,
2013-04-06 08:55:00,54.6,49.9,30.18,ESE,106,0.5,1.2,84,0.00,CLR,,0.01,146.0,WeatherDisplay:10.37,2013-04-06 15:55:00,
2013-04-06 09:00:00,55.0,50.3,30.18,ESE,107,1.0,2.0,84,0.00,CLR,,0.01,192.0,WeatherDisplay:10.37,2013-04-06 16:00:00,
2013-04-06 09:05:00,55.4,50.0,30.18,ESE,107,1.0,2.3,82,0.00,OVC,,0.01,155.0,WeatherDisplay:10.37,2013-04-06 16:05:00,
2013-04-06 09:11:00,55.9,50.5,30.18,ESE,107,0.0,1.2,82,0.00,OVC,,0.01,213.0,WeatherDisplay:10.37,2013-04-06 16:11:00,
2013-04-06 09:16:00,56.4,50.3,30.18,ESE,121,0.7,2.3,80,0.00,OVC,,0.01,151.0,WeatherDisplay:10.37,2013-04-06 16:16:00,
2013-04-06 09:21:00,56.6,50.5,30.18,South,180,3.7,5.0,80,0.00,OVC,,0.01,144.0,WeatherDisplay:10.37,2013-04-06 16:21:00,
2013-04-06 09:27:00,56.8,50.7,30.18,WSW,258,0.2,3.5,80,0.00,OVC,,0.01,158.0,WeatherDisplay:10.37,2013-04-06 16:27:00,
2013-04-06 09:32:00,57.1,51.0,30.18,WNW,287,1.7,3.5,80,0.00,OVC,,0.01,188.0,WeatherDisplay:10.37,2013-04-06 16:32:00,
2013-04-06 09:37:00,57.6,50.8,30.18,WNW,282,1.6,4.0,78,0.00,OVC,,0.01,241.0,WeatherDisplay:10.37,2013-04-06 16:37:00,
2013-04-06 09:42:00,58.0,50.8,30.18,WSW,251,3.8,9.2,77,0.00,OVC,,0.01,415.0,WeatherDisplay:10.37,2013-04-06 16:42:00,
2013-04-06 09:47:00,58.5,51.7,30.18,West,262,5.9,8.1,78,0.00,OVC,,0.01,503.0,WeatherDisplay:10.37,2013-04-06 16:47:00,
2013-04-06 09:52:00,59.0,51.8,30.18,WSW,247,3.8,6.0,77,0.00,OVC,,0.01,371.0,WeatherDisplay:10.37,2013-04-06 16:52:00,
2013-04-06 09:57:00,59.3,51.7,30.18,West,267,2.8,5.0,76,0.00,OVC,,0.01,209.0,WeatherDisplay:10.37,2013-04-06 16:57:00,
2013-04-06 10:02:00,59.3,52.4,30.18,SSE,149,6.8,9.2,78,0.00,OVC,,0.01,230.0,WeatherDisplay:10.37,2013-04-06 17:02:00,
2013-04-06 10:07:00,59.2,52.3,30.18,SSW,204,7.0,11.5,78,0.00,OVC,,0.01,366.0,WeatherDisplay:10.37,2013-04-06 17:07:00,
2013-04-06 10:12:00,59.1,52.2,30.17,SSW,193,5.8,6.0,78,0.00,OVC,,0.01,265.0,WeatherDisplay:10.37,2013-04-06 17:12:00,
2013-04-06 10:17:00,59.2,52.7,30.17,WSW,239,3.4,6.9,79,0.00,OVC,,0.01,279.0,WeatherDisplay:10.37,2013-04-06 17:17:00,
2013-04-06 10:22:00,59.4,52.9,30.17,SSE,166,4.8,5.8,79,0.00,OVC,,0.01,338.0,WeatherDisplay:10.37,2013-04-06 17:22:00,
2013-04-06 10:27:00,59.6,52.7,30.18,South,185,2.5,9.2,78,0.00,OVC,,0.01,269.0,WeatherDisplay:10.37,2013-04-06 17:27:00,
2013-04-06 10:32:00,59.6,52.7,30.18,WSW,245,4.0,8.1,78,0.00,OVC,,0.01,318.0,WeatherDisplay:10.37,2013-04-06 17:32:00,
2013-04-06 10:37:00,59.4,52.5,30.18,SSW,210,9.8,11.5,78,0.00,OVC,,0.01,278.0,WeatherDisplay:10.37,2013-04-06 17:37:00,
2013-04-06 10:42:00,59.4,52.9,30.18,WSW,255,4.8,10.4,79,0.00,OVC,,0.01,360.0,WeatherDisplay:10.37,2013-04-06 17:42:00,
2013-04-06 10:47:00,59.6,53.1,30.18,SW,224,9.7,13.8,79,0.00,OVC,,0.01,258.0,WeatherDisplay:10.37,2013-04-06 17:47:00,
2013-04-06 10:52:00,59.6,53.1,30.18,West,262,4.9,11.5,79,0.00,OVC,,0.01,299.0,WeatherDisplay:10.37,2013-04-06 17:52:00,
2013-04-06 10:57:00,59.6,53.1,30.18,South,184,4.9,11.0,79,0.00,OVC,,0.01,323.0,WeatherDisplay:10.37,2013-04-06 17:57:00,
2013-04-06 11:02:00,59.6,53.4,30.18,WSW,256,5.1,9.2,80,0.00,OVC,,0.01,461.0,WeatherDisplay:10.37,2013-04-06 18:02:00,
2013-04-06 11:07:00,59.8,53.3,30.18,West,271,7.1,9.0,79,0.00,OVC,,0.01,487.0,WeatherDisplay:10.37,2013-04-06 18:07:00,
2013-04-06 11:12:00,60.2,53.3,30.18,West,263,9.0,12.0,78,0.00,OVC,,0.01,399.0,WeatherDisplay:10.37,2013-04-06 18:12:00,
2013-04-06 11:17:00,60.4,53.5,30.18,SW,232,9.0,10.0,78,0.00,OVC,,0.01,338.0,WeatherDisplay:10.37,2013-04-06 18:17:00,
2013-04-06 11:22:00,60.6,53.7,30.18,SW,235,6.3,8.1,78,0.00,OVC,,0.01,413.0,WeatherDisplay:10.37,2013-04-06 18:22:00,
2013-04-06 11:28:00,60.9,53.6,30.19,SW,216,4.0,10.4,77,0.00,OVC,,0.01,357.0,WeatherDisplay:10.37,2013-04-06 18:28:00,
2013-04-06 11:33:00,61.1,53.5,30.19,WSW,251,8.3,12.7,76,0.00,OVC,,0.01,392.0,WeatherDisplay:10.37,2013-04-06 18:33:00,
2013-04-06 11:38:00,61.0,53.4,30.20,SW,235,5.0,16.1,76,0.00,OVC,,0.01,455.0,WeatherDisplay:10.37,2013-04-06 18:38:00,
2013-04-06 11:43:00,60.8,53.5,30.20,WSW,249,11.4,16.0,77,0.00,OVC,,0.01,309.0,WeatherDisplay:10.37,2013-04-06 18:43:00,
2013-04-06 11:48:00,60.3,53.1,30.19,SSW,211,4.1,17.3,77,0.00,OVC,,0.01,397.0,WeatherDisplay:10.37,2013-04-06 18:48:00,
2013-04-06 11:53:00,59.9,53.0,30.20,SW,234,6.1,13.8,78,0.00,OVC,,0.01,336.0,WeatherDisplay:10.37,2013-04-06 18:53:00,
2013-04-06 11:58:00,59.7,53.2,30.19,WSW,251,8.5,12.7,79,0.00,OVC,,0.01,417.0,WeatherDisplay:10.37,2013-04-06 18:58:00,
2013-04-06 12:03:00,60.0,53.8,30.19,WSW,255,9.1,12.7,80,0.00,OVC,,0.01,635.0,WeatherDisplay:10.37,2013-04-06 19:03:00,
2013-04-06 12:08:00,60.7,54.5,30.19,SSW,201,4.9,10.4,80,0.00,OVC,,0.01,603.0,WeatherDisplay:10.37,2013-04-06 19:08:00,
2013-04-06 12:13:00,61.3,54.4,30.19,NW,311,7.1,10.4,78,0.00,OVC,,0.01,478.0,WeatherDisplay:10.37,2013-04-06 19:13:00,
2013-04-06 12:18:00,61.5,53.9,30.19,WNW,297,6.1,9.2,76,0.00,OVC,,0.01,478.0,WeatherDisplay:10.37,2013-04-06 19:18:00,
2013-04-06 12:23:00,61.6,53.6,30.19,WSW,247,11.1,16.1,75,0.00,OVC,,0.01,461.0,WeatherDisplay:10.37,2013-04-06 19:23:00,
2013-04-06 12:28:00,61.6,54.3,30.19,NW,313,6.1,11.5,77,0.00,OVC,,0.01,373.0,WeatherDisplay:10.37,2013-04-06 19:28:00,
2013-04-06 12:33:00,62.0,54.7,30.18,NW,310,3.9,6.0,77,0.00,OVC,,0.01,352.0,WeatherDisplay:10.37,2013-04-06 19:33:00,
2013-04-06 12:38:00,62.3,54.3,30.18,WNW,291,3.1,4.6,75,0.00,OVC,,0.01,323.0,WeatherDisplay:10.37,2013-04-06 19:38:00,
2013-04-06 12:43:00,62.3,54.3,30.18,WNW,300,5.7,8.1,75,0.00,OVC,,0.01,397.0,WeatherDisplay:10.37,2013-04-06 19:43:00,
2013-04-06 12:48:00,62.3,54.3,30.18,NW,304,6.2,11.5,75,0.00,OVC,,0.01,209.0,WeatherDisplay:10.37,2013-04-06 19:48:00,
2013-04-06 12:53:00,62.1,54.4,30.18,WNW,296,8.0,11.5,76,0.00,OVC,,0.01,264.0,WeatherDisplay:10.37,2013-04-06 19:53:00,
2013-04-06 12:58:00,61.9,54.2,30.18,West,267,7.7,11.5,76,0.00,OVC,,0.01,243.0,WeatherDisplay:10.37,2013-04-06 19:58:00,
2013-04-06 13:03:00,61.6,54.0,30.18,WNW,283,10.8,13.8,76,0.00,OVC,,0.01,232.0,WeatherDisplay:10.37,2013-04-06 20:03:00,
2013-04-06 13:08:00,60.7,53.4,30.18,SW,228,8.3,12.7,77,0.00,OVC,,0.01,304.0,WeatherDisplay:10.37,2013-04-06 20:08:00,
2013-04-06 13:13:00,60.3,53.4,30.18,WSW,255,7.0,11.5,78,0.00,OVC,,0.01,357.0,WeatherDisplay:10.37,2013-04-06 20:13:00,
2013-04-06 13:18:00,60.2,53.0,30.17,WSW,243,12.2,17.3,77,0.00,OVC,,0.01,703.0,WeatherDisplay:10.37,2013-04-06 20:18:00,
2013-04-06 13:23:00,60.1,53.2,30.17,WSW,244,10.4,12.7,78,0.00,OVC,,0.01,323.0,WeatherDisplay:10.37,2013-04-06 20:23:00,
2013-04-06 13:28:00,60.3,53.1,30.17,SSW,202,7.0,11.5,77,0.00,OVC,,0.01,990.0,WeatherDisplay:10.37,2013-04-06 20:28:00,
2013-04-06 13:33:00,60.7,53.1,30.17,WSW,253,10.2,13.8,76,0.00,OVC,,0.01,1048.0,WeatherDisplay:10.37,2013-04-06 20:33:00,
2013-04-06 13:38:00,61.3,53.7,30.17,SW,219,6.9,15.0,76,0.00,OVC,,0.01,1127.0,WeatherDisplay:10.37,2013-04-06 20:38:00,
2013-04-06 13:43:00,61.7,53.7,30.17,West,272,10.5,13.8,75,0.00,OVC,,0.01,380.0,WeatherDisplay:10.37,2013-04-06 20:43:00,
2013-04-06 13:48:00,61.7,53.3,30.17,South,178,9.4,11.5,74,0.00,OVC,,0.01,411.0,WeatherDisplay:10.37,2013-04-06 20:48:00,
2013-04-06 13:53:00,61.5,53.1,30.17,SSE,166,6.6,10.4,74,0.00,OVC,,0.01,582.0,WeatherDisplay:10.37,2013-04-06 20:53:00,
2013-04-06 13:58:00,61.9,53.1,30.17,SSE,161,8.2,12.7,73,0.00,OVC,,0.01,636.0,WeatherDisplay:10.37,2013-04-06 20:58:00,
2013-04-06 14:03:00,62.2,53.8,30.17,SW,218,6.8,11.0,74,0.00,SCT,,0.01,587.0,WeatherDisplay:10.37,2013-04-06 21:03:00,
2013-04-06 14:08:00,62.9,53.7,30.17,South,172,9.3,12.7,72,0.00,SCT,,0.01,1106.0,WeatherDisplay:10.37,2013-04-06 21:08:00,
2013-04-06 14:13:00,63.4,53.8,30.16,NW,305,3.4,6.0,71,0.00,SCT,,0.01,432.0,WeatherDisplay:10.37,2013-04-06 21:13:00,
2013-04-06 14:18:00,63.8,53.4,30.17,WNW,289,6.4,9.2,69,0.00,SCT,,0.01,656.0,WeatherDisplay:10.37,2013-04-06 21:18:00,
2013-04-06 14:23:00,64.0,53.6,30.17,NW,305,3.6,5.0,69,0.00,SCT,,0.01,570.0,WeatherDisplay:10.37,2013-04-06 21:23:00,
2013-04-06 14:28:00,64.6,53.4,30.17,WNW,300,8.5,12.0,67,0.00,SCT,,0.01,531.0,WeatherDisplay:10.37,2013-04-06 21:28:00,
2013-04-06 14:33:00,65.0,53.8,30.16,SW,235,2.7,5.8,67,0.00,SCT,,0.01,464.0,WeatherDisplay:10.37,2013-04-06 21:33:00,
2013-04-06 14:38:00,65.2,53.1,30.16,WSW,239,7.7,11.0,65,0.00,SCT,,0.01,988.0,WeatherDisplay:10.37,2013-04-06 21:38:00,
2013-04-06 14:43:00,65.4,53.7,30.16,WNW,292,4.5,9.2,66,0.00,SCT,,0.01,919.0,WeatherDisplay:10.37,2013-04-06 21:43:00,
2013-04-06 14:48:00,65.7,52.8,30.16,WSW,237,9.4,16.1,63,0.00,SCT,,0.01,928.0,WeatherDisplay:10.37,2013-04-06 21:48:00,
2013-04-06 14:53:00,66.0,53.5,30.16,NNW,328,6.7,10.4,64,0.00,SCT,,0.01,923.0,WeatherDisplay:10.37,2013-04-06 21:53:00,
2013-04-06 14:58:00,66.1,52.7,30.16,West,267,9.8,16.1,62,0.00,SCT,,0.01,889.0,WeatherDisplay:10.37,2013-04-06 21:58:00,
2013-04-06 15:03:00,65.9,52.9,30.16,WSW,243,7.4,10.0,63,0.00,OVC,,0.01,439.0,WeatherDisplay:10.37,2013-04-06 22:03:00,
2013-04-06 15:08:00,65.9,52.1,30.16,WSW,241,8.6,10.0,61,0.00,OVC,,0.01,858.0,WeatherDisplay:10.37,2013-04-06 22:08:00,
2013-04-06 15:13:00,65.8,53.3,30.16,West,276,8.1,10.4,64,0.00,OVC,,0.01,512.0,WeatherDisplay:10.37,2013-04-06 22:13:00,
2013-04-06 15:18:00,66.0,53.0,30.16,West,264,9.9,12.7,63,0.00,OVC,,0.01,434.0,WeatherDisplay:10.37,2013-04-06 22:18:00,
2013-04-06 15:23:00,66.1,53.6,30.16,WNW,287,4.3,5.0,64,0.00,OVC,,0.01,802.0,WeatherDisplay:10.37,2013-04-06 22:23:00,
2013-04-06 15:28:00,66.2,52.8,30.16,WSW,256,3.3,5.0,62,0.00,OVC,,0.01,900.0,WeatherDisplay:10.37,2013-04-06 22:28:00,
2013-04-06 15:33:00,66.7,52.8,30.16,NW,305,5.7,9.0,61,0.00,OVC,,0.01,786.0,WeatherDisplay:10.37,2013-04-06 22:33:00,
2013-04-06 15:38:00,66.5,53.1,30.16,SW,219,7.1,10.4,62,0.00,OVC,,0.01,803.0,WeatherDisplay:10.37,2013-04-06 22:38:00,
2013-04-06 15:43:00,66.8,52.5,30.16,SW,228,7.2,10.4,60,0.00,OVC,,0.01,840.0,WeatherDisplay:10.37,2013-04-06 22:43:00,
2013-04-06 15:48:00,67.0,53.1,30.15,WSW,255,5.4,8.1,61,0.00,OVC,,0.01,884.0,WeatherDisplay:10.37,2013-04-06 22:48:00,
2013-04-06 15:53:00,67.5,53.1,30.15,SW,234,6.9,10.4,60,0.00,OVC,,0.01,705.0,WeatherDisplay:10.37,2013-04-06 22:53:00,
2013-04-06 15:59:00,67.9,53.5,30.15,NW,306,8.3,11.5,60,0.00,OVC,,0.01,693.0,WeatherDisplay:10.37,2013-04-06 22:59:00,
2013-04-06 16:04:00,67.7,53.8,30.15,WNW,297,2.8,8.1,61,0.00,CLR,,0.01,482.0,WeatherDisplay:10.37,2013-04-06 23:04:00,
2013-04-06 16:09:00,68.0,53.6,30.15,WNW,283,7.6,11.5,60,0.00,CLR,,0.01,541.0,WeatherDisplay:10.37,2013-04-06 23:09:00,
2013-04-06 16:14:00,68.1,53.7,30.15,West,280,10.7,13.8,60,0.00,CLR,,0.01,589.0,WeatherDisplay:10.37,2013-04-06 23:14:00,
2013-04-06 16:19:00,67.9,53.5,30.15,WNW,301,6.1,10.4,60,0.00,CLR,,0.01,454.0,WeatherDisplay:10.37,2013-04-06 23:19:00,
2013-04-06 16:24:00,67.8,52.9,30.15,WNW,291,4.4,9.0,59,0.00,CLR,,0.01,501.0,WeatherDisplay:10.37,2013-04-06 23:24:00,
2013-04-06 16:29:00,67.4,52.6,30.15,WNW,285,7.0,10.4,59,0.00,CLR,,0.01,482.0,WeatherDisplay:10.37,2013-04-06 23:29:00,
2013-04-06 16:34:00,67.1,52.7,30.15,West,266,6.0,9.2,60,0.00,CLR,,0.01,478.0,WeatherDisplay:10.37,2013-04-06 23:34:00,
2013-04-06 16:39:00,67.0,53.1,30.14,WNW,303,5.1,8.1,61,0.00,CLR,,0.01,510.0,WeatherDisplay:10.37,2013-04-06 23:39:00,
2013-04-06 16:44:00,67.0,52.7,30.14,WNW,288,6.6,10.4,60,0.00,CLR,,0.01,485.0,WeatherDisplay:10.37,2013-04-06 23:44:00,
2013-04-06 16:49:00,66.8,52.9,30.14,West,262,6.0,8.1,61,0.00,CLR,,0.01,462.0,WeatherDisplay:10.37,2013-04-06 23:49:00,
2013-04-06 16:54:00,66.8,53.4,30.14,WNW,284,5.2,7.0,62,0.00,CLR,,0.01,364.0,WeatherDisplay:10.37,2013-04-06 23:54:00,
2013-04-06 16:59:00,66.7,52.8,30.14,SW,235,4.2,6.9,61,0.00,CLR,,0.01,471.0,WeatherDisplay:10.37,2013-04-06 23:59:00,
2013-04-06 17:04:00,67.0,52.7,30.14,WSW,257,5.1,7.0,60,0.00,CLR,,0.01,295.0,WeatherDisplay:10.37,2013-04-07 00:04:00,
2013-04-06 17:09:00,66.5,52.6,30.14,SW,219,5.2,7.0,61,0.00,CLR,,0.01,265.0,WeatherDisplay:10.37,2013-04-07 00:09:00,
2013-04-06 17:14:00,66.1,51.8,30.14,West,278,7.5,11.5,60,0.00,CLR,,0.01,248.0,WeatherDisplay:10.37,2013-04-07 00:14:00,
2013-04-06 17:20:00,65.4,51.6,30.13,West,271,6.0,19.0,61,0.00,CLR,CLR,0.01,204.0,WeatherDisplay:10.37,2013-04-07 00:20:00,
2013-04-06 17:25:00,64.9,51.1,30.14,SW,218,5.9,10.4,61,0.00,CLR,,0.01,193.0,WeatherDisplay:10.37,2013-04-07 00:25:00,
2013-04-06 17:30:00,64.6,51.7,30.14,West,272,7.0,19.0,63,0.00,CLR,CLR,0.01,192.0,WeatherDisplay:10.37,2013-04-07 00:30:00,
2013-04-06 17:35:00,64.2,50.9,30.14,SW,216,3.5,8.0,62,0.00,CLR,,0.01,209.0,WeatherDisplay:10.37,2013-04-07 00:35:00,
2013-04-06 17:40:00,64.0,51.1,30.14,NW,307,3.1,5.0,63,0.00,CLR,,0.01,186.0,WeatherDisplay:10.37,2013-04-07 00:40:00,
2013-04-06 17:45:00,63.7,51.3,30.14,SW,235,6.1,8.1,64,0.00,CLR,,0.01,195.0,WeatherDisplay:10.37,2013-04-07 00:45:00,
2013-04-06 17:50:00,63.4,51.0,30.14,WSW,246,4.5,8.1,64,0.00,CLR,,0.01,216.0,WeatherDisplay:10.37,2013-04-07 00:50:00,
2013-04-06 17:55:00,63.2,50.8,30.14,WSW,250,7.8,9.2,64,0.00,CLR,,0.01,207.0,WeatherDisplay:10.37,2013-04-07 00:55:00,
2013-04-06 18:00:00,62.9,51.0,30.14,West,280,5.3,8.1,65,0.00,CLR,,0.01,192.0,WeatherDisplay:10.37,2013-04-07 01:00:00,
2013-04-06 18:05:00,62.9,51.0,30.14,WSW,254,4.9,7.0,65,0.00,CLR,,0.01,162.0,WeatherDisplay:10.37,2013-04-07 01:05:00,
2013-04-06 18:10:00,62.5,50.6,30.14,WSW,239,5.8,8.1,65,0.00,CLR,,0.01,146.0,WeatherDisplay:10.37,2013-04-07 01:10:00,
2013-04-06 18:15:00,62.2,49.9,30.14,SW,233,6.4,8.1,64,0.00,CLR,,0.01,163.0,WeatherDisplay:10.37,2013-04-07 01:15:00,
2013-04-06 18:20:00,62.1,49.8,30.14,WSW,241,6.1,8.1,64,0.00,CLR,,0.01,171.0,WeatherDisplay:10.37,2013-04-07 01:20:00,
2013-04-06 18:25:00,62.2,49.9,30.14,WSW,249,4.4,5.8,64,0.00,CLR,,0.01,174.0,WeatherDisplay:10.37,2013-04-07 01:25:00,
2013-04-06 18:30:00,62.4,50.1,30.14,West,276,3.6,5.0,64,0.00,CLR,,0.01,176.0,WeatherDisplay:10.37,2013-04-07 01:30:00,
2013-04-06 18:35:00,62.5,50.2,30.14,West,259,3.3,6.0,64,0.00,CLR,,0.01,153.0,WeatherDisplay:10.37,2013-04-07 01:35:00,
2013-04-06 18:40:00,62.8,50.9,30.14,WNW,293,3.2,3.5,65,0.00,CLR,,0.01,100.0,WeatherDisplay:10.37,2013-04-07 01:40:00,
2013-04-06 18:45:00,62.8,50.0,30.13,West,259,3.0,3.5,63,0.00,CLR,,0.01,86.0,WeatherDisplay:10.37,2013-04-07 01:45:00,
2013-04-06 18:50:00,62.6,49.8,30.13,West,267,1.6,3.5,63,0.00,CLR,,0.01,72.0,WeatherDisplay:10.37,2013-04-07 01:50:00,
2013-04-06 18:55:00,62.4,50.1,30.13,West,276,2.2,3.5,64,0.00,CLR,,0.01,58.0,WeatherDisplay:10.37,2013-04-07 01:55:00,
2013-04-06 19:00:00,62.2,50.3,30.13,West,276,1.7,3.0,65,0.00,CLR,,0.01,42.0,WeatherDisplay:10.37,2013-04-07 02:00:00,
2013-04-06 19:05:00,62.1,50.6,30.13,WNW,288,3.1,19.0,66,0.00,CLR,,0.01,32.0,WeatherDisplay:10.37,2013-04-07 02:05:00,
2013-04-06 19:10:00,61.8,50.3,30.13,WNW,285,2.4,19.0,66,0.00,CLR,,0.01,25.0,WeatherDisplay:10.37,2013-04-07 02:10:00,
2013-04-06 19:15:00,61.2,50.2,30.13,WNW,282,3.3,3.5,67,0.00,CLR,,0.01,19.0,WeatherDisplay:10.37,2013-04-07 02:15:00,
2013-04-06 19:20:00,60.6,50.4,30.13,West,262,3.5,19.0,69,0.00,CLR,,0.01,14.0,WeatherDisplay:10.37,2013-04-07 02:20:00,
2013-04-06 19:25:00,59.9,49.7,30.13,WSW,249,3.1,19.0,69,0.00,CLR,,0.01,9.0,WeatherDisplay:10.37,2013-04-07 02:25:00,
2013-04-06 19:30:00,59.2,49.0,30.13,SW,232,4.6,19.0,69,0.00,CLR,,0.01,5.0,WeatherDisplay:10.37,2013-04-07 02:30:00,
2013-04-06 19:35:00,58.5,48.0,30.13,WSW,241,3.5,4.6,68,0.00,CLR,,0.01,0.0,WeatherDisplay:10.37,2013-04-07 02:35:00,
2013-04-06 19:40:00,58.0,48.3,30.13,West,271,5.4,6.9,70,0.00,CLR,,0.01,0.0,WeatherDisplay:10.37,2013-04-07 02:40:00,
2013-04-06 19:45:00,57.3,48.0,30.13,WNW,282,3.6,19.0,71,0.00,CLR,,0.01,0.0,WeatherDisplay:10.37,2013-04-07 02:45:00,
2013-04-06 19:50:00,56.8,47.9,30.14,WNW,293,5.9,19.0,72,0.00,CLR,,0.01,0.0,WeatherDisplay:10.37,2013-04-07 02:50:00,
2013-04-06 19:55:00,56.4,47.9,30.14,NW,305,3.7,4.0,73,0.00,CLR,,0.01,0.0,WeatherDisplay:10.37,2013-04-07 02:55:00,
2013-04-06 20:00:00,56.2,48.0,30.14,WNW,295,3.2,4.6,74,0.00,CLR,,0.01,0.0,WeatherDisplay:10.37,2013-04-07 03:00:00,
2013-04-06 20:05:00,55.8,48.0,30.14,WNW,294,6.7,9.2,75,0.00,CLR,,0.01,0.0,WeatherDisplay:10.37,2013-04-07 03:05:00,
2013-04-06 20:10:00,55.4,47.2,30.14,WNW,284,3.9,7.0,74,0.00,CLR,,0.01,0.0,WeatherDisplay:10.37,2013-04-07 03:10:00,
2013-04-06 20:15:00,55.0,47.2,30.14,West,278,3.5,19.0,75,0.00,CLR,,0.01,0.0,WeatherDisplay:10.37,2013-04-07 03:15:00,
2013-04-06 20:20:00,54.6,47.2,30.14,WSW,255,1.7,19.0,76,0.00,CLR,,0.01,0.0,WeatherDisplay:10.37,2013-04-07 03:20:00,
2013-04-06 20:25:00,54.4,47.0,30.14,WSW,251,0.8,2.3,76,0.00,CLR,,0.01,0.0,WeatherDisplay:10.37,2013-04-07 03:25:00,
2013-04-06 20:30:00,54.2,46.8,30.14,SSW,210,2.4,19.0,76,0.00,CLR,,0.01,0.0,WeatherDisplay:10.37,2013-04-07 03:30:00,
2013-04-06 20:35:00,54.0,46.6,30.15,SW,226,2.6,3.5,76,0.00,CLR,,0.01,0.0,WeatherDisplay:10.37,2013-04-07 03:35:00,
2013-04-06 20:41:00,53.7,46.3,30.15,SW,232,2.0,19.0,76,0.00,CLR,,0.01,0.0,WeatherDisplay:10.37,2013-04-07 03:41:00,
2013-04-06 20:46:00,53.6,46.2,30.15,SW,235,0.0,2.3,76,0.00,CLR,,0.01,0.0,WeatherDisplay:10.37,2013-04-07 03:46:00,
2013-04-06 20:51:00,53.5,46.1,30.15,SW,215,4.5,5.0,76,0.00,CLR,,0.01,0.0,WeatherDisplay:10.37,2013-04-07 03:51:00,
2013-04-06 20:56:00,53.4,46.0,30.15,SSW,209,5.3,6.0,76,0.00,CLR,,0.01,0.0,WeatherDisplay:10.37,2013-04-07 03:56:00,
2013-04-06 21:00:00,53.3,45.6,30.15,SSW,212,5.6,6.0,75,0.00,CLR,,0.01,0.0,WeatherDisplay:10.37,2013-04-07 04:00:00,
2013-04-06 21:01:00,53.3,45.6,30.15,SSW,210,6.0,7.0,75,0.00,CLR,,0.01,0.0,WeatherDisplay:10.37,2013-04-07 04:01:00,
2013-04-06 21:07:00,53.3,45.6,30.15,SW,224,3.8,5.8,75,0.00,CLR,,0.01,0.0,WeatherDisplay:10.37,2013-04-07 04:07:00,
2013-04-06 21:12:00,53.4,45.3,30.15,SSE,166,1.8,4.0,74,0.00,CLR,,0.01,0.0,WeatherDisplay:10.37,2013-04-07 04:12:00,
2013-04-06 21:17:00,53.5,45.1,30.15,SSW,192,3.8,5.8,73,0.00,CLR,,0.01,0.0,WeatherDisplay:10.37,2013-04-07 04:17:00,
2013-04-06 21:22:00,53.5,45.4,30.15,South,184,1.7,2.3,74,0.00,CLR,,0.01,0.0,WeatherDisplay:10.37,2013-04-07 04:22:00,
2013-04-06 21:27:00,53.3,45.9,30.15,ENE,72,2.3,3.5,76,0.00,CLR,,0.01,0.0,WeatherDisplay:10.37,2013-04-07 04:27:00,
2013-04-06 21:32:00,53.1,45.4,30.16,East,93,2.5,4.0,75,0.00,CLR,,0.01,0.0,WeatherDisplay:10.37,2013-04-07 04:32:00,
2013-04-06 21:37:00,52.8,45.4,30.15,ESE,121,4.8,7.0,76,0.00,CLR,,0.01,0.0,WeatherDisplay:10.37,2013-04-07 04:37:00,
2013-04-06 21:42:00,52.6,45.6,30.16,ESE,123,4.4,4.6,77,0.00,CLR,,0.01,0.0,WeatherDisplay:10.37,2013-04-07 04:42:00,
2013-04-06 21:47:00,52.4,45.7,30.16,SE,126,3.4,4.6,78,0.00,CLR,,0.01,0.0,WeatherDisplay:10.37,2013-04-07 04:47:00,
2013-04-06 21:52:00,52.2,45.9,30.16,ESE,116,2.5,3.5,79,0.00,CLR,,0.01,0.0,WeatherDisplay:10.37,2013-04-07 04:52:00,
2013-04-06 21:57:00,52.0,46.0,30.16,ESE,118,2.0,3.5,80,0.00,CLR,,0.01,0.0,WeatherDisplay:10.37,2013-04-07 04:57:00,
2013-04-06 22:02:00,51.8,46.2,30.16,ESE,119,3.5,4.0,81,0.00,CLR,,0.01,0.0,WeatherDisplay:10.37,2013-04-07 05:02:00,
2013-04-06 22:07:00,51.8,46.2,30.16,ESE,113,2.2,3.5,81,0.00,CLR,,0.01,0.0,WeatherDisplay:10.37,2013-04-07 05:07:00,
2013-04-06 22:12:00,51.7,46.1,30.16,ESE,116,2.8,4.0,81,0.00,CLR,,0.01,0.0,WeatherDisplay:10.37,2013-04-07 05:12:00,
2013-04-06 22:17:00,51.6,46.3,30.16,ESE,122,2.6,3.5,82,0.00,CLR,,0.01,0.0,WeatherDisplay:10.37,2013-04-07 05:17:00,
2013-04-06 22:22:00,51.5,46.2,30.16,East,89,1.7,4.6,82,0.00,CLR,,0.01,0.0,WeatherDisplay:10.37,2013-04-07 05:22:00,
2013-04-06 22:27:00,51.5,46.5,30.17,East,97,2.5,3.5,83,0.00,CLR,,0.01,0.0,WeatherDisplay:10.37,2013-04-07 05:27:00,
2013-04-06 22:32:00,51.4,46.4,30.17,ESE,120,2.3,3.5,83,0.00,CLR,,0.01,0.0,WeatherDisplay:10.37,2013-04-07 05:32:00,
2013-04-06 22:37:00,51.2,46.5,30.17,ESE,116,4.0,5.0,84,0.00,CLR,,0.01,0.0,WeatherDisplay:10.37,2013-04-07 05:37:00,
2013-04-06 22:42:00,51.2,46.5,30.17,ESE,122,3.7,5.0,84,0.00,CLR,,0.01,0.0,WeatherDisplay:10.37,2013-04-07 05:42:00,
2013-04-06 22:47:00,51.1,46.4,30.17,ESE,116,2.6,4.0,84,0.00,CLR,,0.01,0.0,WeatherDisplay:10.37,2013-04-07 05:47:00,
2013-04-06 22:52:00,51.0,46.3,30.17,ESE,107,1.3,3.5,84,0.00,CLR,,0.01,0.0,WeatherDisplay:10.37,2013-04-07 05:52:00,
2013-04-06 22:57:00,50.9,46.2,30.17,SE,127,2.7,4.0,84,0.00,CLR,,0.01,0.0,WeatherDisplay:10.37,2013-04-07 05:57:00,
2013-04-06 23:02:00,50.8,46.5,30.17,SE,124,3.5,3.5,85,0.00,CLR,,0.01,0.0,WeatherDisplay:10.37,2013-04-07 06:02:00,
2013-04-06 23:07:00,50.8,46.5,30.17,SE,127,3.6,4.0,85,0.00,CLR,,0.01,0.0,WeatherDisplay:10.37,2013-04-07 06:07:00,
2013-04-06 23:12:00,50.7,46.4,30.17,SE,134,2.6,3.5,85,0.00,CLR,,0.01,0.0,WeatherDisplay:10.37,2013-04-07 06:12:00,
2013-04-06 23:17:00,50.7,46.7,30.17,ESE,110,2.5,3.5,86,0.00,CLR,,0.01,0.0,WeatherDisplay:10.37,2013-04-07 06:17:00,
2013-04-06 23:22:00,50.7,46.7,30.17,ESE,113,1.7,1.7,86,0.00,CLR,,0.01,0.0,WeatherDisplay:10.37,2013-04-07 06:22:00,
2013-04-06 23:27:00,50.6,46.6,30.17,ESE,116,3.2,3.5,86,0.00,CLR,,0.01,0.0,WeatherDisplay:10.37,2013-04-07 06:27:00,
2013-04-06 23:32:00,50.3,46.0,30.17,ESE,105,2.2,4.0,85,0.00,CLR,,0.01,0.0,WeatherDisplay:10.37,2013-04-07 06:32:00,
2013-04-06 23:37:00,50.1,46.1,30.17,ESE,116,3.0,3.5,86,0.00,CLR,,0.01,0.0,WeatherDisplay:10.37,2013-04-07 06:37:00,
2013-04-06 23:42:00,49.9,45.9,30.17,ESE,106,3.6,4.6,86,0.00,CLR,,0.01,0.0,WeatherDisplay:10.37,2013-04-07 06:42:00,
2013-04-06 23:47:00,49.7,46.0,30.17,ESE,118,3.6,4.0,87,0.00,CLR,,0.01,0.0,WeatherDisplay:10.37,2013-04-07 06:47:00,
2013-04-06 23:52:00,49.7,46.3,30.17,ESE,118,1.6,4.6,88,0.00,CLR,,0.01,0.0,WeatherDisplay:10.37,2013-04-07 06:52:00,
2013-04-06 23:57:00,49.7,46.3,30.17,ESE,116,2.6,4.0,88,0.00,CLR,,0.01,0.0,WeatherDisplay:10.37,2013-04-07 06:57:00,